User: anonymous
Location: Unspecified
(0.0000°N, 0.0000°E)
Time: 23:47:55
(UTC+00:00)
Language:

Landsat 7 - Orbit

View from above orbital plane
View from above orbital plane
View from above satellite
View from above satellite

Ground track
Ground track

The orbit data is extracted from the following two-line orbital elements,

1 25682U 99020A   14245.34124846  .00000415  00000-0  10213-3 0  5649
2 25682 098.2092 313.9068 0000764 105.2322 254.8964 14.57109240818229
Epoch (UTC): 02 September 2014 08:11:23
Eccentricity: 0.0000764
inclination: 98.2092°
perigee height: 702 km
apogee height: 703 km
right ascension of ascending node: 313.9068°
argument of perigee: 105.2322°
revolutions per day: 14.57109240
mean anomaly at epoch: 254.8964°
orbit number at epoch: 81822

The dashed part of the orbit path shows where the satellite is in the earth's shadow,  

DLR